Change the Weather History Date:

Monday, January 28, 2013

  Actual Average Record
Temperature  
Mean Temperature 78 °F -  
Max Temperature 82 °F 80 °F 84 °F (1998)
Min Temperature 75 °F 69 °F 69 °F (2015)
Cooling Degree Days 14    
Growing Degree Days 28 (Base 50)    
Moisture  
Dew Point 71 °F    
Average Humidity 77    
Maximum Humidity 89    
Minimum Humidity 67    
Precipitation  
Precipitation 0.07 in - - ()
Sea Level Pressure  
Sea Level Pressure 30.13 in    
Wind  
Wind Speed 10 mph (ENE)    
Max Wind Speed 14 mph    
Max Gust Speed 21 mph    
Visibility 10 miles    
Events Rain    
Averages and records for this station are not official NWS values.
T = Trace of Precipitation, MM = Missing Value Source: NWS Daily Summary

Daily Weather History Graph

Daily Weather History Graph

Search for Another Location

Airport or City:

Trip Planner

Search our weather history database for the weather conditions in past years. The results will help you decide how hot, cold, wet, or windy it might be!

Date:

Astronomy

Jan. 28, 2013 Rise Set
Actual Time 6:56 AM AST 6:14 PM AST
Civil Twilight 6:33 AM AST 6:37 PM AST
Nautical Twilight 6:07 AM AST 7:03 PM AST
Astronomical Twilight 5:41 AM AST 7:30 PM AST
Moon 7:42 PM AST (1/28) 7:39 AM AST (1/28)
Length of Visible Light 12h 03m
Length of Day
11h 18m
Full, 98% of the Moon is Illuminated
Jan 28
Full
Feb 3
Last Quarter
Feb 10
New
Feb 17
First Quarter
Feb 25
Full

Hourly Weather History & Observations

Time (AST) Temp. Heat Index Dew Point Humidity Pressure Visibility Wind Dir Wind Speed Gust Speed Precip Events Conditions
12:53 AM 77.0 °F - 71.1 °F 82% 30.13 in 10.0 mi ENE 8.1 mph - N/A   Partly Cloudy
1:33 AM 77.0 °F - 69.8 °F 78% 30.12 in 10.0 mi ENE 8.1 mph - N/A   Mostly Cloudy
1:53 AM 77.0 °F - 70.0 °F 79% 30.11 in 10.0 mi ENE 6.9 mph - N/A   Scattered Clouds
2:53 AM 77.0 °F - 71.1 °F 82% 30.09 in 10.0 mi NE 11.5 mph - N/A   Scattered Clouds
3:53 AM 77.0 °F - 69.1 °F 76% 30.09 in 10.0 mi ENE 8.1 mph - N/A   Partly Cloudy
4:53 AM 75.9 °F - 71.1 °F 85% 30.09 in 10.0 mi NE 8.1 mph - N/A   Partly Cloudy
5:53 AM 77.0 °F - 71.1 °F 82% 30.11 in 10.0 mi NE 10.4 mph - N/A   Scattered Clouds
6:53 AM 77.0 °F - 71.1 °F 82% 30.13 in 10.0 mi NE 11.5 mph - N/A   Scattered Clouds
7:53 AM 78.1 °F - 70.0 °F 76% 30.15 in 10.0 mi ENE 12.7 mph - N/A   Scattered Clouds
8:53 AM 80.1 °F 83.2 °F 70.0 °F 71% 30.17 in 10.0 mi NE 11.5 mph - N/A   Partly Cloudy
9:53 AM 81.0 °F 84.4 °F 70.0 °F 69% 30.19 in 10.0 mi ENE 12.7 mph - N/A   Clear
10:53 AM 82.9 °F 87.5 °F 71.1 °F 67% 30.19 in 10.0 mi ENE 12.7 mph 19.6 mph N/A   Partly Cloudy
11:53 AM 82.9 °F 88.0 °F 72.0 °F 69% 30.17 in 10.0 mi ENE 13.8 mph - N/A   Mostly Cloudy
12:20 PM 80.6 °F 85.4 °F 73.4 °F 79% 30.16 in 10.0 mi East 11.5 mph - N/A   Mostly Cloudy
12:29 PM 80.6 °F 84.6 °F 71.6 °F 74% 30.16 in 10.0 mi East 10.4 mph - N/A   Overcast
12:53 PM 82.0 °F 86.7 °F 72.0 °F 71% 30.15 in 10.0 mi East 11.5 mph - N/A   Mostly Cloudy
1:45 PM 75.2 °F - 71.6 °F 89% 30.13 in 2.0 mi East 5.8 mph 19.6 mph 0.05 in Rain Light Rain
1:53 PM 77.0 °F - 73.0 °F 88% 30.13 in 10.0 mi East 4.6 mph - 0.05 in   Mostly Cloudy
2:53 PM 80.1 °F 83.6 °F 71.1 °F 74% 30.11 in 10.0 mi East 10.4 mph 17.3 mph N/A   Mostly Cloudy
3:53 PM 78.1 °F - 72.0 °F 81% 30.11 in 4.0 mi ENE 11.5 mph 20.7 mph 0.02 in Rain Rain
4:53 PM 78.1 °F - 71.1 °F 79% 30.11 in 10.0 mi ENE 10.4 mph - 0.00 in   Partly Cloudy
5:53 PM 78.1 °F - 71.1 °F 79% 30.12 in 10.0 mi ENE 9.2 mph - N/A   Partly Cloudy
6:53 PM 77.0 °F - 70.0 °F 79% 30.12 in 10.0 mi ENE 10.4 mph - N/A   Partly Cloudy
7:53 PM 78.1 °F - 69.1 °F 74% 30.14 in 10.0 mi NE 10.4 mph - N/A   Partly Cloudy
8:53 PM 77.0 °F - 69.1 °F 76% 30.14 in 10.0 mi NE 10.4 mph - N/A   Clear
9:53 PM 77.0 °F - 68.0 °F 74% 30.15 in 10.0 mi ENE 9.2 mph - N/A   Partly Cloudy
10:53 PM 77.0 °F - 69.1 °F 76% 30.15 in 10.0 mi ENE 8.1 mph 16.1 mph N/A   Scattered Clouds
11:38 PM 77.0 °F - 69.8 °F 78% 30.14 in 10.0 mi ENE 11.5 mph 18.4 mph N/A   Mostly Cloudy
11:53 PM 77.0 °F - 68.0 °F 74% 30.13 in 10.0 mi ENE 9.2 mph - N/A   Scattered Clouds